Volver al catálogo

STARLINK-32858

ActivoComunicacionesVLEO
NORAD 62962·PAYLOAD·🇺🇸 United States

Lanzado Feb 11, 2025 desde Vandenberg Space Force Base

Loading…

Próximos Pases (próximas 24 horas)

TLE

ActualizadoSource: CelesTrak SupGP

Época: Sep 15, 2026, 03:27 UTC

1 62962C 25029Q   26258.14423611 -.00023732  00000+0 -70146-3 0  2585
2 62962  53.1585  70.8916 0001154  87.7211   1.7884 15.34390098    13

Sigue STARLINK-32858 en tiempo real con AllMySat

Download on the App Store